User: anonymous   Login
Location: Unspecified
(0.0000°N, 0.0000°E)
Time: 12:35:09
(UTC+02:00)
Language:

Cosmos 2263 Rocket - Orbit

View from above orbital plane
View from above orbital plane
View from above satellite
View from above satellite

Ground track
Ground track

The orbit data is extracted from the following two-line orbital elements,

1 22803U 93059B   18113.95182094 +.00000234 +00000-0 +14048-3 0  9992
2 22803 070.9896 314.5799 0019419 271.9629 087.9271 14.16789231272045
Epoch (UTC): 23 April 2018 22:50:37
Eccentricity: 0.0019419
inclination: 70.9896°
perigee height: 822 km
apogee height: 850 km
right ascension of ascending node: 314.5799°
argument of perigee: 271.9629°
revolutions per day: 14.16789231
mean anomaly at epoch: 87.9271°
orbit number at epoch: 27204

The dashed part of the orbit path shows where the satellite is in the earth's shadow,  

DLR